Satellite: SO-50
Catalog number: 27607
Epoch time:      12271.65718795
Element set:     875
Inclination:      064.5594 deg
RA of node:       343.1582 deg
Eccentricity:    0.0076340
Arg of perigee:   228.0847 deg
Mean anomaly:     131.3743 deg
Mean motion:   14.72532902 rev/day
Decay rate:      1.259e-05 rev/day^2
Epoch rev:           52505
Checksum:              318

Satellite: CO-55
Catalog number: 27844
Epoch time:      12270.59389723
Element set:     471
Inclination:      098.7047 deg
RA of node:       277.5087 deg
Eccentricity:    0.0009111
Arg of perigee:   294.5336 deg
Mean anomaly:     065.4886 deg
Mean motion:   14.21075985 rev/day
Decay rate:       1.80e-06 rev/day^2
Epoch rev:           47929
Checksum:              349

Satellite: CO-57
Catalog number: 27848
Epoch time:      12270.54507408
Element set:    0422
Inclination:      098.7130 deg
RA of node:       276.8403 deg
Eccentricity:    0.0009270
Arg of perigee:   301.5819 deg
Mean anomaly:     058.4452 deg
Mean motion:   14.20821017 rev/day
Decay rate:       1.64e-06 rev/day^2
Epoch rev:           47922
Checksum:              296

Satellite: AO-51
Catalog number: 28375
Epoch time:      12270.46001113
Element set:    0375
Inclination:      098.1597 deg
RA of node:       231.0924 deg
Eccentricity:    0.0084407
Arg of perigee:   093.7913 deg
Mean anomaly:     267.2931 deg
Mean motion:   14.40989688 rev/day
Decay rate:       1.58e-06 rev/day^2
Epoch rev:           43335
Checksum:              318

Satellite: CP3
Catalog number: 31129
Epoch time:      12270.57764837
Element set:    0274
Inclination:      097.8861 deg
RA of node:       272.4088 deg
Eccentricity:    0.0100961
Arg of perigee:   167.0251 deg
Mean anomaly:     193.3583 deg
Mean motion:   14.53215906 rev/day
Decay rate:       6.79e-06 rev/day^2
Epoch rev:           28870
Checksum:              324

Satellite: CO-65
Catalog number: 32785
Epoch time:      12271.66054795
Element set:     426
Inclination:      097.7878 deg
RA of node:       330.2379 deg
Eccentricity:    0.0015856
Arg of perigee:   086.4479 deg
Mean anomaly:     273.8564 deg
Mean motion:   14.83212796 rev/day
Decay rate:      1.545e-05 rev/day^2
Epoch rev:           23895
Checksum:              368

Satellite: PRISM
Catalog number: 33493
Epoch time:      12271.74016698
Element set:     110
Inclination:      098.1849 deg
RA of node:       054.8659 deg
Eccentricity:    0.0018154
Arg of perigee:   327.6854 deg
Mean anomaly:     032.3259 deg
Mean motion:   14.84379085 rev/day
Decay rate:      3.167e-05 rev/day^2
Epoch rev:           19896
Checksum:              339

Satellite: SOHLA-1
Catalog number: 33496
Epoch time:      12271.88657654
Element set:     844
Inclination:      098.1127 deg
RA of node:       022.9948 deg
Eccentricity:    0.0007671
Arg of perigee:   075.9667 deg
Mean anomaly:     284.2391 deg
Mean motion:   14.70053520 rev/day
Decay rate:       7.29e-06 rev/day^2
Epoch rev:           19733
Checksum:              334

Satellite: SO-67
Catalog number: 35870
Epoch time:      12271.79168872
Element set:     366
Inclination:      097.2237 deg
RA of node:       303.9288 deg
Eccentricity:    0.0002816
Arg of perigee:   132.1205 deg
Mean anomaly:     316.1836 deg
Mean motion:   15.24606923 rev/day
Decay rate:      5.143e-05 rev/day^2
Epoch rev:           16824
Checksum:              315

Satellite: TISAT-1
Catalog number: 36799
Epoch time:      12271.75686719
Element set:     384
Inclination:      098.0553 deg
RA of node:       348.8213 deg
Eccentricity:    0.0014359
Arg of perigee:   195.6663 deg
Mean anomaly:     164.4137 deg
Mean motion:   14.82279968 rev/day
Decay rate:      2.082e-05 rev/day^2
Epoch rev:           11968
Checksum:              357

Satellite: STUDSAT
Catalog number: 36801
Epoch time:      12271.84549190
Element set:     482
Inclination:      098.0621 deg
RA of node:       350.1249 deg
Eccentricity:    0.0012745
Arg of perigee:   180.5324 deg
Mean anomaly:     179.5882 deg
Mean motion:   14.85228821 rev/day
Decay rate:      6.012e-05 rev/day^2
Epoch rev:           11975
Checksum:              298

Satellite: FO-69
Catalog number: 37227
Epoch time:      12271.50309918
Element set:    0299
Inclination:      071.9752 deg
RA of node:       086.1689 deg
Eccentricity:    0.0017721
Arg of perigee:   139.0233 deg
Mean anomaly:     221.2222 deg
Mean motion:   14.77188357 rev/day
Decay rate:      1.763e-05 rev/day^2
Epoch rev:           05120
Checksum:              310

Satellite: FO-70
Catalog number: 37380
Epoch time:      12271.05182549
Element set:    0298
Inclination:      071.9710 deg
RA of node:       087.8490 deg
Eccentricity:    0.0016476
Arg of perigee:   131.8420 deg
Mean anomaly:     228.4153 deg
Mean motion:   14.76928503 rev/day
Decay rate:       6.10e-06 rev/day^2
Epoch rev:           05102
Checksum:              293

Satellite: ALMASAT-1
Catalog number: 38078
Epoch time:      12271.56913916
Element set:     600
Inclination:      069.4789 deg
RA of node:       084.8076 deg
Eccentricity:    0.0741426
Arg of perigee:   120.3450 deg
Mean anomaly:     247.3245 deg
Mean motion:   14.12820104 rev/day
Decay rate:     3.5440e-04 rev/day^2
Epoch rev:            3199
Checksum:              297

